Wetbulb
69.51 71.47 72.17 72.54 71.97 73.48 74.76 76.02 76.02 77.69 77.45 76.68 76.00 75.61 75.18 77.05 76.65 77.20 77.89 78.85 77.41 78.12 79.75 78.51 79.46 79.11 79.12 78.55 78.87 77.54 76.78 73.50 73.94 72.16 71.45 70.50 73.50 73.06 72.97 73.59 76.02 75.33 75.42
68.12 69.97 71.40 72.28 72.76 73.15 74.00 75.07 75.77 77.04 77.54 76.41 76.71 76.72 76.69 76.99 76.86 77.23 79.09 79.49 78.59 78.59 78.80 79.54 78.43 79.74 78.61 79.41 78.65 78.53 74.79 73.49 73.69 69.75 70.33 67.34 69.39 70.32 69.04 69.48 69.97 73.03 73.94
66.58 69.01 70.26 71.19 71.84 72.65 74.11 75.30 76.13 76.62 77.59 78.08 76.52 77.39 77.68 77.39 76.25 75.87 77.00 78.61 78.57 78.91 79.11 79.51 79.96 80.65 81.52 76.34 77.98 78.15 76.87 73.04 73.35 72.99 68.98 65.96 64.37 66.53 68.94 69.22 67.29 68.62 69.44
67.89 68.72 69.84 70.88 71.53 72.42 74.38 75.69 76.96 77.69 77.66 78.94 78.22 78.11 74.95 74.11 75.36 76.80 78.29 78.32 78.73 78.96 78.63 79.30 80.23 80.39 79.21 80.33 78.52 78.27 77.68 76.12 72.89 73.37 72.19 71.36 68.72 64.02 63.21 66.58 67.25 68.85 67.97
69.55 69.05 68.82 70.32 71.45 72.68 73.44 75.13 77.30 78.58 78.81 78.98 78.91 76.00 76.30 74.84 74.95 75.04 78.14 79.59 80.25 79.23 78.32 79.08 80.37 80.80 79.08 80.26 79.78 79.31 78.15 75.80 74.76 73.43 72.40 73.68 70.23 70.11 66.61 61.79 62.95 65.24 67.50
70.52 71.04 70.89 71.36 71.71 72.41 73.04 74.21 77.20 79.53 78.94 78.47 77.75 77.89 76.84 77.25 75.60 76.78 74.85 75.69 75.82 77.26 79.84 78.48 79.67 80.50 80.30 79.62 79.35 79.52 78.71 77.25 76.48 75.86 74.26 71.05 68.66 66.98 65.28 63.22 65.12 62.54 66.24
70.97 70.99 71.10 71.15 71.35 72.62 73.09 73.27 75.87 76.94 77.89 77.51 77.13 77.09 76.47 77.78 77.72 77.32 74.75 77.97 75.04 75.01 78.24 79.76 79.53 78.93 80.91 80.81 80.26 80.53 79.16 77.88 76.43 76.46 74.01 72.21 71.05 69.70 67.56 64.80 62.92 60.56 64.52
71.26 71.28 71.65 72.33 71.85 72.80 73.57 73.68 74.79 76.55 77.38 77.18 77.50 78.44 77.79 75.62 75.43 77.24 75.28 74.19 75.09 75.64 78.13 78.28 78.62 78.68 79.34 80.07 80.72 79.98 77.83 78.42 77.01 76.31 74.92 72.46 71.53 70.01 68.91 66.83 63.29 59.75 60.31
71.35 70.31 70.43 72.40 72.76 72.65 74.13 74.02 74.81 76.41 77.11 77.24 77.45 77.91 77.24 77.03 76.76 78.62 78.10 76.00 79.23 75.97 78.69 77.32 77.82 78.18 79.04 79.62 80.88 78.13 78.58 78.73 78.34 77.06 74.73 73.21 72.47 71.08 70.68 69.55 65.29 61.95 59.08
69.21 71.54 71.90 72.95 73.63 74.17 74.33 74.34 74.95 75.90 76.64 76.90 77.11 76.85 76.94 77.13 77.16 77.27 77.03 77.75 77.15 78.65 78.07 77.96 77.58 77.86 78.46 79.62 80.58 79.52 80.01 78.79 77.48 77.10 75.23 74.17 73.35 71.01 69.30 69.68 65.31 64.15 62.92
68.72 67.59 72.11 72.47 72.64 74.21 74.52 74.73 74.67 75.12 76.21 76.63 76.79 77.04 76.95 76.66 76.95 76.24 76.55 76.77 77.34 78.69 79.03 78.88 78.47 77.86 77.68 79.17 81.12 80.85 80.20 78.59 77.81 77.38 75.95 74.36 73.02 70.80 67.90 68.31 65.79 64.89 64.79
71.24 71.29 71.06 71.47 72.56 73.62 74.52 73.66 74.79 74.92 75.66 77.13 78.44 77.32 77.69 77.50 77.01 76.74 76.71 77.11 77.93 78.27 78.34 78.71 79.33 78.88 78.96 79.93 79.50 78.89 79.19 78.40 77.09 76.36 76.28 74.19 72.62 71.23 69.69 66.27 67.76 66.66 67.26
72.27 72.60 72.24 71.72 71.84 72.17 72.70 72.16 72.16 74.66 75.13 77.17 76.57 77.26 78.09 78.84 79.30 79.04 79.43 79.54 79.51 79.52 79.42 79.88 80.40 79.62 80.38 80.08 80.02 79.57 79.39 78.91 77.88 74.65 75.02 75.04 72.85 71.44 66.93 67.15 66.04 65.22 65.57
72.48 73.13 73.35 73.75 74.06 73.79 73.72 73.00 73.34 74.78 74.73 74.75 75.94 76.74 77.14 78.12 78.44 79.51 79.86 80.09 80.57 79.93 79.94 81.34 82.06 81.67 81.33 80.39 80.63 78.87 79.41 79.32 77.96 74.70 76.03 73.81 72.82 70.86 67.26 67.03 67.05 66.58 66.01
71.55 72.19 71.65 72.58 73.47 73.41 74.38 74.95 75.31 75.00 75.42 76.35 76.55 77.17 78.25 78.47 78.94 78.99 79.29 79.48 79.83 80.19 80.49 80.71 81.30 80.88 80.60 79.52 80.00 79.11 78.75 78.54 76.76 75.21 74.92 73.51 69.37 64.35 64.65 65.23 66.88 66.79 65.39
70.35 70.19 70.02 71.03 72.30 73.18 73.99 74.44 74.75 73.51 74.41 72.83 71.43 72.17 75.25 76.59 76.72 76.72 76.00 76.05 76.76 76.70 78.28 80.29 79.34 80.14 79.30 67.70 67.56 73.24 78.66 78.73 77.02 72.88 72.88 69.60 64.63 62.69 61.28 61.65 61.22 63.72 65.64
69.55 69.32 69.52 69.87 71.65 71.66 71.59 71.40 72.16 73.06 72.44 71.84 71.15 72.00 72.62 72.93 76.02 77.01 75.98 74.76 76.53 75.60 75.85 77.25 78.03 80.06 80.30 66.34 65.59 66.72 76.48 77.48 77.06 73.03 72.36 70.59 67.09 64.06 62.81 59.68 60.05 59.79 60.62
69.45 69.89 69.35 70.65 71.04 71.90 71.82 71.92 71.65 71.43 71.80 72.54 71.61 71.69 73.30 72.88 74.82 75.57 76.19 76.62 77.34 77.40 76.78 77.95 79.31 79.49 74.50 63.51 63.33 65.43 77.10 76.08 75.67 74.82 71.93 71.59 66.59 66.27 64.31 65.58 64.13 63.13 63.68
70.03 69.35 69.64 70.39 70.76 70.10 71.20 70.53 70.65 71.01 70.03 69.18 69.98 70.74 72.67 73.18 74.00 73.48 75.03 75.73 75.94 76.64 77.74 78.31 78.12 77.29 75.74 64.05 63.51 67.78 75.93 75.26 74.17 72.69 71.55 71.12 68.48 60.93 60.21 65.34 64.54 64.03 62.97
68.41 68.20 68.69 69.01 69.76 70.31 70.49 69.25 68.71 68.53 68.62 69.64 69.58 71.20 71.96 72.46 72.57 73.63 75.40 75.82 76.45 76.24 78.30 77.09 77.67 71.07 74.05 61.45 59.52 64.14 75.05 72.88 71.31 72.61 70.30 64.69 67.49 58.41 57.98 65.73 64.99 62.80 61.82
67.96 68.33 68.25 67.87 68.56 68.50 67.56 66.10 66.15 65.80 67.52 69.33 70.50 71.15 71.98 72.04 72.76 73.92 74.82 75.55 74.37 76.74 77.94 76.39 76.89 77.06 74.60 74.30 57.89 57.35 69.60 70.85 70.58 69.84 68.40 66.62 57.04 55.15 55.12 55.50 66.38 64.57 63.96
66.61 67.20 66.47 66.66 67.31 67.41 66.80 65.61 64.90 66.16 66.86 67.60 68.71 69.94 70.57 70.11 70.32 72.14 73.20 73.91 73.33 75.62 76.58 76.34 74.92 74.65 76.52 65.15 57.23 54.81 57.95 65.65 69.75 69.33 69.34 65.28 53.85 52.88 53.13 56.14 54.88 56.26 60.35
67.31 67.18 66.45 66.09 66.43 66.84 66.19 64.34 64.94 65.98 66.30 66.39 67.09 68.28 70.09 70.32 70.29 70.22 70.44 70.61 73.78 71.09 74.95 75.31 74.25 76.61 74.04 71.76 57.53 55.35 56.62 59.88 67.41 71.26 66.73 56.25 51.09 51.44 53.68 54.17 54.47 56.15 63.42
65.93 65.95 65.59 64.70 64.10 65.24 64.52 64.55 65.12 65.87 66.12 66.04 66.12 67.28 68.05 68.01 69.28 67.73 68.85 68.90 69.39 69.36 70.79 69.15 69.93 74.23 74.85 72.38 68.99 67.10 67.30 59.76 64.48 61.81 60.26 57.09 56.80 57.05 59.58 57.36 58.35 63.60 65.25
65.94 65.70 64.57 64.21 63.20 63.93 63.36 63.86 64.62 65.77 65.23 65.37 65.47 65.49 65.09 66.63 67.07 67.23 66.67 66.98 68.32 62.31 65.23 67.42 64.36 65.95 69.76 61.54 53.21 53.93 66.15 67.48 64.03 61.39 60.76 58.44 57.34 58.15 60.55 61.50 61.73 63.05 65.77
64.91 64.86 65.11 64.12 62.97 62.81 62.69 63.31 64.80 65.39 65.07 64.06 63.56 63.16 64.14 64.57 64.92 64.95 65.49 55.35 53.92 50.46 47.92 46.81 51.82 63.88 55.33 48.10 48.28 49.01 47.92 51.55 52.94 62.79 60.93 59.50 58.40 58.77 61.06 61.60 62.11 63.42 64.41
MSLP
1007.30 1008.25 1008.89 1009.54 1010.44 1011.20 1012.00 1012.47 1012.87 1013.25 1013.56 1013.53 1013.17 1012.57 1012.19 1012.21 1012.04 1012.16 1012.84 1013.20 1013.23 1013.06 1013.28 1012.68 1012.63 1012.77 1013.01 1013.49 1013.46 1013.28 1012.71 1012.60 1013.03 1012.27 1011.29 1010.81 1011.39 1011.58 1011.46 1011.54 1012.49 1012.64 1013.44
1006.51 1007.61 1008.54 1009.29 1009.93 1010.81 1011.62 1012.30 1012.73 1013.23 1013.68 1013.44 1013.12 1012.67 1012.41 1011.93 1012.04 1012.17 1012.80 1013.06 1013.00 1013.02 1012.98 1013.41 1013.34 1013.16 1013.45 1013.59 1013.72 1013.63 1013.25 1012.62 1013.25 1012.96 1011.61 1010.90 1010.70 1010.96 1011.40 1012.27 1012.28 1012.53 1013.31
1005.82 1006.83 1007.85 1008.66 1009.39 1010.03 1011.01 1011.74 1012.47 1012.87 1013.38 1013.34 1013.32 1013.43 1013.45 1013.06 1012.71 1012.46 1012.46 1012.76 1013.02 1013.08 1013.08 1013.28 1013.22 1013.22 1013.06 1012.79 1013.28 1013.55 1013.48 1012.99 1012.87 1013.30 1013.06 1012.18 1011.83 1011.79 1011.51 1012.17 1012.81 1013.10 1013.07
1005.39 1006.06 1007.10 1008.00 1008.60 1009.27 1010.13 1011.01 1011.86 1012.37 1012.85 1013.18 1013.02 1013.02 1012.93 1012.60 1012.05 1012.10 1012.16 1012.48 1012.87 1013.09 1013.06 1013.18 1013.11 1013.41 1013.28 1013.26 1013.08 1013.68 1013.72 1013.57 1012.87 1012.61 1012.82 1013.49 1013.40 1012.91 1012.13 1012.00 1012.75 1013.21 1013.30
1004.09 1004.93 1005.99 1007.05 1007.81 1008.45 1009.13 1010.05 1011.11 1011.85 1012.34 1012.82 1013.13 1012.88 1013.21 1012.56 1012.47 1012.37 1012.48 1013.01 1013.01 1012.78 1012.65 1012.78 1013.08 1013.32 1013.40 1013.32 1013.43 1013.79 1013.99 1013.33 1013.39 1013.04 1013.04 1012.94 1012.59 1013.09 1012.91 1012.36 1012.08 1012.00 1013.00
1002.98 1003.99 1004.90 1005.93 1006.84 1007.57 1008.35 1009.13 1010.39 1011.34 1011.96 1012.37 1012.92 1013.05 1012.93 1012.84 1012.42 1012.33 1012.47 1012.26 1011.84 1011.85 1012.31 1012.50 1012.84 1013.01 1013.22 1013.26 1013.32 1013.56 1013.91 1013.97 1013.79 1013.43 1013.15 1013.14 1012.93 1012.84 1012.85 1012.43 1012.12 1011.95 1012.95
1002.36 1003.22 1004.14 1005.06 1005.95 1006.74 1007.65 1008.43 1009.66 1010.91 1011.54 1012.00 1012.44 1012.82 1013.03 1013.07 1012.86 1012.89 1012.66 1012.35 1011.76 1011.57 1011.66 1012.48 1012.92 1012.76 1012.85 1013.07 1013.22 1013.31 1013.46 1013.57 1013.63 1013.75 1013.34 1013.15 1013.04 1013.22 1013.07 1012.68 1012.23 1012.21 1012.07
1002.05 1002.69 1003.31 1004.45 1005.23 1006.19 1007.08 1007.98 1008.88 1010.24 1011.01 1011.55 1012.06 1012.45 1012.81 1012.84 1012.75 1012.75 1012.47 1012.21 1011.82 1011.69 1011.95 1012.39 1012.73 1012.70 1012.55 1012.53 1012.83 1013.12 1013.12 1013.47 1013.46 1013.56 1013.74 1013.42 1013.12 1013.19 1013.16 1013.06 1012.79 1012.50 1011.96
1002.98 1003.41 1002.84 1003.79 1004.76 1005.77 1006.59 1007.37 1008.31 1009.74 1010.47 1011.03 1011.60 1012.08 1012.45 1012.65 1012.11 1012.27 1012.34 1012.25 1012.39 1012.28 1012.22 1012.52 1012.65 1012.59 1012.36 1012.32 1012.52 1012.58 1012.71 1013.06 1013.14 1013.15 1013.45 1013.47 1012.94 1013.19 1013.52 1013.24 1012.93 1013.07 1012.66
1003.39 1003.72 1003.89 1004.02 1004.52 1005.13 1006.14 1006.98 1007.78 1008.97 1009.80 1010.35 1010.95 1011.44 1011.88 1012.20 1012.29 1012.39 1012.46 1012.40 1012.30 1012.29 1012.34 1012.44 1012.46 1012.49 1012.51 1012.29 1012.47 1012.23 1011.97 1012.63 1012.80 1012.83 1012.98 1013.39 1012.98 1013.18 1013.48 1013.20 1012.93 1012.95 1012.99
1004.19 1004.03 1004.11 1004.72 1004.93 1004.85 1005.44 1006.40 1007.23 1007.96 1009.08 1009.63 1010.07 1010.69 1011.15 1011.52 1011.88 1011.99 1012.11 1012.29 1012.27 1012.31 1012.35 1012.34 1012.31 1012.30 1012.30 1012.29 1012.10 1012.08 1012.03 1012.12 1012.39 1012.51 1012.86 1013.13 1013.38 1013.24 1013.51 1013.34 1012.99 1012.82 1012.96
1004.28 1004.76 1005.36 1005.61 1005.52 1005.77 1005.69 1006.23 1006.90 1007.58 1008.32 1008.97 1009.61 1010.11 1010.64 1011.01 1011.23 1011.49 1011.62 1011.78 1011.86 1011.92 1011.96 1011.99 1012.04 1012.07 1012.05 1011.94 1011.87 1011.63 1011.38 1011.45 1011.83 1012.35 1012.59 1012.91 1012.96 1013.42 1013.60 1013.45 1013.28 1013.36 1013.25
1005.23 1005.27 1005.54 1006.08 1006.40 1007.11 1007.91 1007.52 1007.07 1008.03 1008.24 1008.68 1009.31 1009.96 1010.37 1010.80 1011.01 1011.10 1011.24 1011.39 1011.43 1011.46 1011.34 1011.19 1011.17 1011.25 1011.32 1011.38 1011.30 1011.46 1011.41 1011.37 1011.37 1012.08 1012.55 1012.73 1013.04 1013.43 1013.67 1013.59 1013.26 1012.96 1013.22
1005.77 1006.12 1006.61 1007.02 1007.40 1008.10 1008.61 1008.62 1008.75 1008.68 1009.06 1009.16 1009.64 1009.83 1010.08 1010.40 1010.57 1010.59 1010.61 1010.70 1010.72 1010.71 1010.60 1010.40 1010.32 1010.36 1010.43 1010.57 1010.61 1010.87 1010.88 1010.97 1011.15 1011.82 1012.32 1012.71 1012.85 1013.32 1013.79 1013.55 1013.69 1013.46 1013.63
1006.20 1006.98 1007.63 1008.12 1008.54 1008.98 1009.03 1009.41 1009.53 1009.81 1010.12 1009.83 1010.18 1010.80 1010.68 1010.31 1010.67 1010.42 1010.30 1010.36 1010.33 1010.00 1010.08 1009.84 1009.87 1009.88 1009.83 1009.92 1010.05 1010.27 1010.49 1010.70 1011.40 1012.00 1012.50 1012.80 1013.21 1013.79 1014.15 1013.82 1013.83 1013.87 1013.79
1006.67 1007.74 1008.59 1009.07 1009.22 1009.53 1009.60 1009.99 1010.45 1010.76 1010.55 1010.53 1011.05 1012.45 1012.43 1011.94 1011.53 1011.25 1010.55 1010.08 1010.42 1010.83 1010.34 1009.67 1009.79 1009.75 1009.39 1009.28 1009.56 1009.90 1010.07 1010.60 1011.22 1012.05 1012.39 1013.39 1014.02 1014.20 1014.68 1014.56 1014.66 1014.49 1014.20
1006.96 1007.96 1008.97 1009.70 1009.82 1010.08 1010.59 1011.05 1011.34 1011.47 1011.67 1011.15 1011.30 1010.99 1012.82 1013.33 1011.67 1011.57 1010.92 1009.38 1009.79 1010.53 1010.38 1009.66 1009.75 1009.60 1009.43 1010.32 1010.13 1009.91 1010.17 1010.40 1011.17 1011.82 1011.87 1012.92 1013.35 1014.28 1014.88 1014.88 1014.92 1014.74 1014.97
1006.93 1007.90 1008.87 1009.62 1010.20 1010.48 1010.83 1011.27 1011.48 1011.82 1011.85 1011.69 1012.26 1012.46 1012.32 1012.15 1012.33 1011.64 1010.58 1010.19 1009.85 1009.91 1009.55 1009.06 1009.07 1009.16 1010.23 1010.00 1010.28 1010.54 1010.43 1010.81 1010.99 1011.29 1011.39 1012.04 1013.08 1013.82 1014.84 1014.52 1014.55 1014.69 1014.93
1007.28 1008.44 1009.38 1009.84 1010.09 1010.41 1011.08 1011.41 1011.51 1011.65 1011.97 1012.27 1012.39 1012.39 1012.28 1012.39 1012.39 1011.48 1011.13 1010.13 1009.58 1009.66 1009.34 1008.89 1009.46 1009.60 1010.04 1010.45 1010.34 1010.36 1010.33 1010.56 1010.92 1011.23 1010.62 1011.10 1011.90 1012.89 1014.55 1014.65 1014.56 1014.63 1015.26
1008.51 1009.48 1009.93 1010.47 1010.71 1010.82 1011.12 1011.43 1011.73 1012.10 1012.28 1012.42 1012.45 1012.20 1012.04 1011.95 1011.51 1011.30 1010.35 1009.91 1009.51 1009.24 1009.04 1008.62 1009.07 1009.26 1009.88 1010.47 1010.40 1010.68 1010.48 1010.84 1011.07 1011.25 1011.17 1011.30 1011.91 1011.90 1013.53 1014.53 1014.67 1014.68 1015.20
1008.85 1009.51 1010.15 1010.51 1011.03 1011.36 1011.68 1011.80 1012.15 1012.49 1012.54 1012.28 1011.94 1012.07 1011.81 1011.52 1011.30 1010.86 1010.36 1009.98 1009.47 1009.05 1009.06 1008.69 1008.74 1008.90 1009.23 1009.33 1010.26 1010.69 1010.86 1010.97 1011.14 1011.29 1011.66 1011.96 1012.24 1012.61 1012.93 1014.35 1014.56 1014.45 1015.11
1009.19 1009.81 1010.42 1011.25 1011.90 1012.15 1012.30 1012.42 1012.50 1012.61 1012.54 1012.47 1012.46 1012.19 1012.05 1012.07 1011.85 1011.54 1011.04 1010.47 1009.95 1009.55 1009.27 1008.88 1008.63 1008.10 1008.74 1009.46 1010.44 1010.90 1011.24 1011.16 1011.10 1011.29 1011.43 1011.64 1012.78 1012.61 1013.29 1014.24 1014.64 1014.79 1014.95
1008.82 1009.65 1010.85 1011.79 1012.42 1012.81 1012.89 1012.85 1012.92 1012.67 1012.51 1012.38 1012.24 1012.10 1011.99 1011.98 1012.10 1011.98 1011.35 1010.76 1010.11 1010.04 1009.89 1009.55 1008.93 1008.64 1008.28 1009.63 1010.25 1011.02 1011.43 1011.24 1011.27 1011.11 1011.47 1011.85 1012.62 1013.10 1013.99 1014.42 1014.68 1014.94 1014.59
1008.99 1009.89 1011.18 1012.23 1012.91 1012.98 1013.17 1013.31 1013.29 1013.22 1012.80 1012.55 1012.60 1012.42 1012.12 1011.94 1011.94 1012.21 1011.44 1011.39 1011.02 1010.82 1010.80 1010.45 1009.83 1008.92 1008.57 1009.33 1010.42 1010.97 1011.15 1011.56 1011.09 1011.07 1011.69 1012.40 1012.80 1013.32 1013.94 1014.68 1014.85 1014.33 1013.62
1009.92 1010.65 1011.83 1012.53 1013.16 1013.38 1013.55 1013.64 1013.55 1013.20 1012.69 1012.50 1012.40 1012.33 1012.00 1011.86 1011.86 1012.01 1012.15 1012.07 1011.93 1012.43 1012.28 1011.85 1011.59 1011.08 1010.05 1011.09 1011.52 1011.75 1011.22 1011.21 1010.87 1011.16 1012.18 1012.65 1012.97 1013.18 1013.67 1014.01 1014.09 1013.88 1013.23
1010.81 1010.95 1011.47 1012.23 1012.96 1013.60 1013.95 1013.84 1013.53 1013.18 1012.60 1012.08 1012.08 1012.29 1012.10 1012.00 1011.91 1012.06 1011.95 1012.34 1012.51 1012.76 1012.82 1012.59 1012.67 1012.09 1011.98 1012.17 1012.13 1012.06 1011.52 1011.08 1010.89 1011.11 1011.81 1012.18 1012.69 1012.70 1012.80 1013.28 1013.34 1013.05 1012.96
Wind_Speed
13 16 13 13 16 14 13 11 10 9 6 6 7 6 6 3 2 0 3 1 4 2 1 5 4 4 7 6 7 8 3 5 8 7 6 3 5 4 4 3 4 3 3
17 17 15 14 14 15 14 13 11 10 8 7 6 6 6 1 4 4 3 5 1 0 4 4 6 6 5 8 4 6 7 5 5 7 7 3 5 0 6 6 6 7 4
16 17 16 15 15 15 14 13 13 11 10 10 5 3 5 5 5 7 8 7 3 4 2 2 4 5 8 6 2 4 4 4 3 4 4 5 6 9 4 5 4 4 3
15 16 17 16 16 15 15 14 14 13 12 10 8 5 6 6 2 2 6 1 2 4 5 3 3 3 7 5 4 5 5 4 4 1 4 1 1 3 5 2 5 7 2
18 18 18 18 16 16 15 15 14 13 11 10 10 7 8 7 6 5 2 3 5 6 6 3 3 3 6 4 3 4 4 3 5 4 4 4 1 7 4 7 5 2 7
18 17 17 18 17 15 14 15 15 12 13 12 12 10 8 8 7 2 5 6 7 5 8 3 3 4 4 5 3 1 3 3 4 5 3 4 5 5 5 6 7 5 8
16 17 16 16 15 15 14 13 15 14 14 14 12 11 10 9 9 7 7 7 8 5 2 3 5 6 3 5 4 4 1 2 4 4 5 4 4 3 4 6 7 8 4
13 15 18 15 15 15 15 15 16 14 14 14 12 9 10 8 9 9 8 8 6 6 4 2 6 7 7 5 5 5 4 2 4 3 3 5 3 4 4 5 6 8 8
6 13 15 17 15 15 16 16 14 14 14 14 11 10 10 11 8 8 7 7 7 9 9 7 8 7 8 6 3 7 3 3 4 4 4 5 3 2 4 6 5 5 8
5 5 1 6 11 15 15 14 15 15 13 14 12 11 11 10 9 8 8 9 8 8 8 8 8 8 8 7 5 8 5 4 5 4 1 4 3 2 2 5 4 5 6
4 4 5 7 9 14 14 13 14 16 14 13 12 11 10 10 10 9 9 9 9 8 9 9 9 9 8 8 7 7 8 8 5 6 5 5 1 3 3 5 5 4 4
5 6 8 8 9 5 10 5 3 12 14 12 9 10 9 8 9 9 9 9 9 9 9 9 9 10 10 9 9 10 10 8 7 5 4 5 3 1 2 6 2 4 2
7 7 7 10 9 6 3 5 5 2 8 8 10 9 8 8 8 8 8 8 9 10 11 10 10 10 10 10 9 9 9 9 7 5 4 3 3 3 3 2 5 3 4
8 7 8 7 8 6 6 7 5 5 4 4 5 8 10 10 10 9 9 9 10 11 12 11 11 11 11 11 9 9 10 9 4 3 3 2 4 2 3 1 2 4 2
9 9 7 8 8 8 6 10 8 9 6 6 3 3 5 4 5 4 3 6 10 10 10 12 12 12 11 10 12 10 10 8 2 2 3 2 8 13 7 5 3 1 4
10 11 11 10 8 8 9 9 8 7 7 9 7 5 13 11 7 6 3 1 7 13 15 11 10 13 11 8 6 6 7 5 3 6 6 6 5 9 9 9 11 8 4
11 10 12 9 7 9 8 7 6 5 2 7 5 5 2 8 10 10 6 4 8 9 11 11 12 12 10 8 6 6 8 5 6 8 7 6 6 6 5 7 6 7 7
13 12 11 11 10 7 6 6 6 5 4 6 5 2 7 3 11 9 7 7 7 10 10 11 12 11 3 6 2 5 7 6 8 10 10 7 11 7 5 5 6 7 7
9 7 8 8 8 8 8 7 6 6 6 5 4 4 4 3 8 7 8 8 7 9 9 7 5 7 3 4 8 8 8 11 11 10 13 10 13 15 6 4 5 6 6
13 11 12 11 10 8 8 7 7 5 4 4 3 5 6 7 8 6 9 8 9 10 6 11 6 4 8 8 6 7 6 9 7 9 6 8 12 19 12 6 6 6 6
12 11 11 10 10 9 9 9 9 7 5 5 6 6 8 8 10 11 11 11 9 9 8 8 7 8 9 5 11 7 4 4 3 5 7 6 14 15 15 7 6 6 8
13 12 11 11 9 8 7 7 8 5 5 5 5 6 6 7 7 10 10 10 7 8 7 6 6 7 5 7 7 3 9 6 7 8 7 9 15 14 13 5 10 11 8
15 15 13 11 9 7 6 7 6 7 7 8 8 7 8 6 5 8 8 10 6 6 8 6 6 6 4 4 5 4 8 8 7 2 7 15 15 14 8 9 11 11 7
14 13 12 9 7 6 7 6 5 4 4 5 6 7 7 6 6 6 8 8 8 8 6 7 9 5 7 8 4 1 2 5 3 8 10 12 12 11 7 9 8 8 7
11 13 11 10 7 7 6 5 5 3 4 3 3 4 5 6 5 5 5 6 7 5 7 6 6 9 10 5 5 5 3 5 6 11 9 9 9 9 8 8 9 9 7
8 9 13 10 8 8 5 4 5 4 6 5 7 5 5 5 7 6 8 4 6 6 7 5 3 7 5 5 4 5 8 3 13 5 8 9 9 9 9 9 11 10 8
Wind_Direction
172 163 175 164 161 168 178 187 191 181 204 208 219 218 230 134 200 173 90 274 46 52 83 331 68 337 51 48 28 354 83 33 3 291 332 190 176 252 302 16 160 146 221
167 167 175 176 177 173 184 191 204 199 208 211 248 318 322 282 11 21 77 287 43 112 264 340 6 11 118 77 13 26 348 48 56 348 303 343 182 106 62 24 342 53 148
180 174 176 186 187 183 186 189 199 201 212 246 203 233 277 270 247 206 209 185 237 300 286 287 320 312 283 65 50 34 65 340 83 83 355 341 9 320 141 145 35 3 3
193 180 183 189 198 193 187 194 196 202 199 210 242 243 279 274 313 266 65 97 198 296 281 239 280 331 326 44 43 75 333 326 8 16 92 127 111 4 333 72 150 156 138
191 189 187 185 200 197 193 189 194 200 221 191 242 211 226 253 242 240 136 231 279 242 256 202 265 254 284 40 298 50 353 314 326 358 354 348 234 167 277 313 328 172 105
194 194 189 184 192 197 194 187 186 196 199 202 207 235 264 238 280 270 272 247 250 208 175 257 242 264 289 251 306 327 144 344 328 341 323 360 338 357 328 327 302 331 113
206 190 192 192 188 191 192 195 181 194 202 203 207 213 224 238 249 257 253 266 287 278 194 151 251 278 312 253 252 234 240 258 340 341 329 342 341 357 319 315 327 320 152
198 204 188 199 190 194 192 198 178 187 197 202 208 207 217 225 225 237 259 266 274 274 335 310 275 280 283 255 227 247 243 70 294 322 337 316 343 354 331 319 325 324 322
335 350 193 186 189 192 192 199 182 187 195 199 201 205 212 232 257 251 238 232 246 264 248 250 264 285 288 261 250 248 232 171 254 299 213 275 309 346 352 309 329 330 313
132 16 64 163 200 186 191 191 187 183 196 199 200 205 213 220 232 251 252 275 287 295 290 285 279 275 287 283 248 270 228 217 261 269 227 286 343 291 342 297 318 324 312
181 200 173 186 199 193 184 192 203 182 192 206 198 205 206 216 218 232 236 245 257 260 265 268 270 272 268 272 272 251 276 268 237 271 250 269 261 359 333 325 352 321 341
144 177 184 184 178 177 153 95 289 204 190 193 212 204 205 216 216 226 240 247 252 254 255 260 269 275 273 267 262 263 270 259 229 245 260 260 253 204 210 296 38 35 1
150 155 172 183 179 188 277 33 109 240 202 187 190 210 208 213 224 237 244 251 257 259 261 262 257 252 258 268 252 253 264 261 261 213 234 242 219 247 359 343 333 26 29
157 135 146 159 131 158 150 146 120 160 165 146 241 213 212 217 222 225 231 240 247 256 260 258 256 251 246 244 242 245 245 248 248 190 214 206 221 225 223 114 214 86 294
140 125 106 97 120 119 131 88 91 98 74 53 49 340 285 311 294 276 317 323 320 292 278 269 270 261 254 244 231 232 246 254 286 169 182 236 71 61 42 331 66 109 257
137 121 107 88 116 117 116 119 109 90 104 79 83 16 351 345 324 310 262 279 295 304 307 304 289 287 275 338 214 223 222 207 210 126 127 111 110 89 65 68 58 54 8
146 147 116 112 122 108 102 92 87 94 102 118 121 125 276 273 280 268 264 303 288 281 282 292 287 284 273 20 326 220 233 201 147 153 141 166 156 149 129 97 109 78 53
161 157 132 137 143 139 124 129 99 93 97 86 109 232 229 307 276 286 295 302 302 287 289 293 295 287 111 101 132 270 217 158 151 163 152 179 140 145 172 167 125 108 97
123 134 119 103 86 118 145 134 155 101 59 29 11 8 318 295 286 307 282 300 307 296 287 290 287 295 183 203 188 191 185 180 164 174 166 160 154 138 241 196 138 113 123
136 162 145 139 139 145 122 103 86 75 58 55 8 353 6 343 337 322 327 322 315 290 282 283 260 264 282 191 204 232 189 204 204 175 150 131 159 148 166 223 169 149 143
147 130 147 131 122 124 124 116 106 86 49 27 19 360 2 355 349 342 344 338 333 304 267 275 264 256 260 280 190 191 265 246 198 164 155 162 149 163 152 229 195 146 143
139 145 131 125 118 117 110 97 82 56 34 28 15 8 10 349 350 335 328 326 329 305 275 259 264 247 238 80 174 218 237 258 221 214 193 153 169 153 152 205 123 123 154
152 136 132 132 105 82 75 74 41 31 23 11 5 0 345 1 10 330 339 319 338 355 332 305 268 274 171 154 77 256 258 255 253 199 161 143 155 137 107 139 145 155 213
140 129 126 115 110 92 78 72 51 16 23 29 6 345 334 337 11 336 335 337 341 342 336 351 332 261 280 92 110 158 275 226 146 108 127 153 151 143 139 144 175 195 215
135 132 135 132 145 102 91 84 75 48 65 60 27 359 339 326 323 350 328 337 0 360 333 346 346 338 329 47 27 336 251 215 145 123 131 142 149 158 164 185 193 211 206
141 143 139 132 123 131 124 100 60 46 27 13 38 25 336 348 345 338 325 214 245 208 237 256 270 334 27 38 306 303 312 227 155 136 156 162 170 177 175 189 197 208 204